[[{"header":{"parameterUnit":"m.s-1","parameterCategory":1,"la1":30.2991,"la2":30.254,"lo1":-89.0895,"lo2":-89.0444,"dy":0.0017,"dx":0.0017,"nx":28,"ny":28,"refTime":"2023-07-30T21:00:00:Z","depth":0,"parameterNumber":2,"parameterNumberName":"U-component_of_WINDS"},"data":[0,0,0,0,0,0,0,0,0,0,0,0,0,0,0,0,0,0,0,0,0,0,0,0,0,0,0,0,0,0,0,0,0,0,0,0,0,0,0,0,0,0,0,0,0,0,0,0,0,0,0,0,0,0,0,0,0,0,1.6283,1.6283,0,1.6281,1.6281,1.6281,1.6195,1.6193,1.6191,1.6189,1.6186,1.6188,1.619,0,0,0,0,0,0,0,0,0,0,0,0,0,1.6215,1.6217,1.6283,1.6283,1.6283,1.6281,1.6281,1.6281,1.6196,1.6193,1.619,1.6188,1.6186,1.6188,1.6191,0,0,0,0,0,0,0,0,0,0,0,0,0,1.6232,1.6217,1.6283,1.624,1.6237,1.6281,1.6281,1.6281,1.6196,1.6193,1.6189,1.6186,1.6185,1.6188,1.6191,1.6276,0,0,1.62,1.6201,0,0,0,0,0,0,0,0,1.6231,1.6234,1.6247,1.6243,1.6239,1.6235,1.6256,1.6279,1.6197,1.6211,1.6189,1.6185,1.6205,1.6206,1.6213,1.6276,1.6276,1.62,1.6202,1.6204,1.6204,0,0,0,0,0,0,0,1.623,1.6234,1.6282,1.6247,1.6242,1.6222,1.622,1.626,1.6227,1.621,1.6204,1.6205,1.6203,1.6211,1.6213,1.6276,1.62,1.6203,1.6205,1.6206,1.641,1.6413,0,0,0,0,0,0,1.6235,1.6234,1.6282,1.6282,1.6227,1.6225,1.6224,1.624,1.6226,1.6221,1.6207,1.6201,1.6207,1.6209,1.6212,1.6312,1.6204,1.6206,1.6208,1.6406,1.6411,1.6415,0,0,0,0,0,0,1.6233,1.624,1.6282,1.6256,1.626,1.623,1.6248,1.6241,1.6249,1.6225,1.6218,1.6222,1.6205,1.6208,1.6261,1.6311,1.6208,1.621,1.6402,1.6408,1.6413,1.6512,0,0,0,0,0,0,1.6232,1.624,1.6272,1.6258,1.6262,1.6332,1.6251,1.6244,1.6255,1.6246,1.6236,1.6231,1.6202,1.6257,1.6264,1.6313,1.6213,1.6398,1.6405,1.6411,1.6504,1.652,1.6534,0,0,0,0,0,1.623,1.63,1.6274,1.628,1.6301,1.6335,1.6337,1.6302,1.6259,1.6291,1.6275,1.6232,1.6304,1.6263,1.6271,1.6321,1.6394,1.6403,1.641,1.6498,1.6517,1.6534,0,0,0,0,0,0,1.632,1.6297,1.6268,1.6335,1.6338,1.632,1.6359,1.6323,1.6338,1.6329,1.6285,1.6283,1.6344,1.6337,1.6292,1.6404,1.6342,1.6352,1.6406,1.6424,1.6438,1.6439,1.6215,0,0,0,0,0,1.6348,1.6377,1.6355,1.6417,1.642,1.639,1.6403,1.6376,1.6376,1.6377,1.6365,1.6367,1.639,1.6407,1.6426,1.6503,1.65,1.6541,1.6556,1.6568,1.6578,1.6619,1.6637,1.6441,1.6441,1.6441,0,0,1.6406,1.6397,1.6418,1.6435,1.6433,1.6465,1.6391,1.6427,1.645,1.6382,1.6432,1.6423,1.6423,1.6489,1.6517,1.6485,1.6631,1.6579,1.6589,1.6591,1.6629,1.6648,1.6664,1.6447,1.6446,1.6445,0,0,1.6527,1.6523,1.6574,1.6575,1.6573,1.6553,1.6566,1.6554,1.6546,1.6595,1.6545,1.6572,1.6612,1.6615,1.6621,1.6745,1.6706,1.6753,1.683,1.6871,1.6886,1.69,1.6945,1.6961,1.6762,1.6762,1.6762,0,1.6599,1.6644,1.6605,1.6645,1.6655,1.6595,1.6647,1.6649,1.6655,1.6663,1.6627,1.6678,1.6673,1.6739,1.6769,1.6776,1.679,1.6754,1.6887,1.69,1.6912,1.6955,1.6972,1.6768,1.6767,1.6767,1.6766,0,1.6734,1.6766,1.6808,1.6815,1.6829,1.6875,1.6843,1.6862,1.6834,1.6818,1.6869,1.6862,1.688,1.6893,1.6866,1.6956,1.6936,1.6895,1.6832,1.6937,1.6976,1.6992,1.6776,1.6774,1.6772,1.6771,0,0,1.6912,1.6897,1.6914,1.6917,1.6911,1.6936,1.6979,1.6997,1.7014,1.702,1.7056,1.7093,1.7054,1.7062,1.7034,1.707,1.717,1.7024,1.7023,1.7052,1.7269,1.7301,1.732,1.7143,1.7146,1.7149,1.7269,0,1.703,1.7103,1.707,1.7147,1.7177,1.7121,1.7159,1.716,1.7147,1.717,1.7154,1.7181,1.7128,1.7133,1.7165,1.7151,1.7213,1.7141,1.7177,1.7179,1.718,1.7341,1.7374,1.7489,1.7284,1.7287,1.7289,0,1.7177,1.719,1.7271,1.7261,1.7272,1.7307,1.7321,1.7344,1.7345,1.7332,1.7341,1.7306,1.7348,1.7286,1.7344,1.7296,1.7309,1.7304,1.7308,1.731,1.7241,1.7348,1.7524,1.7542,1.7312,1.731,1.7309,0,1.7301,1.7338,1.7391,1.7395,1.7385,1.7411,1.7408,1.7405,1.7418,1.7431,1.7439,1.7456,1.7466,1.748,1.745,1.7407,1.7513,1.7448,1.7505,1.7506,1.753,1.7529,1.7711,1.7537,1.7537,1.7537,1.7536,0,1.7436,1.7488,1.7446,1.7479,1.7536,1.7497,1.7554,1.7545,1.7543,1.7573,1.7526,1.7555,1.7514,1.754,1.7517,1.757,1.7574,1.7566,1.7559,1.757,1.7572,1.7578,1.757,1.7541,1.754,1.7539,1.7539,0,1.7584,1.7558,1.7612,1.7598,1.7596,1.7638,1.7627,1.7657,1.764,1.7679,1.7686,1.766,1.7688,1.7659,1.7685,1.767,1.7741,1.7722,1.7741,1.7736,1.7795,1.779,1.7988,1.8013,1.7823,1.7825,1.7826,0,1.7672,1.7711,1.7702,1.7719,1.7719,1.7747,1.776,1.7723,1.7739,1.7744,1.7774,1.7797,1.7815,1.7862,1.7846,1.7865,1.7847,1.7916,1.785,1.7861,1.785,1.7848,1.7852,1.7929,1.7931,1.7933,1.7935,0,1.7833,1.7819,1.7839,1.7857,1.7874,1.7886,1.7894,1.791,1.7873,1.7893,1.7921,1.7935,1.7962,1.7987,1.8002,1.7999,1.7962,1.7956,1.797,1.7982,1.7992,1.7988,1.7778,1.7951,1.795,1.7948,1.7947,1.7947,1.7954,1.7986,1.7985,1.801,1.8013,1.8021,1.8049,1.8036,1.8059,1.8078,1.8055,1.809,1.8091,1.8107,1.8109,1.8136,1.8107,1.8128,1.8133,1.8139,1.8148,1.7987,1.8138,1.8138,1.8137,1.8137,1.8137,0,1.8113,1.811,1.8133,1.8146,1.8167,1.8129,1.8136,1.8156,1.8187,1.8191,1.8209,1.8242,1.8266,1.8252,1.8272,1.8297,1.828,1.8304,1.8302,1.8302,1.8172,1.8158,1.8317,1.8317,1.8317,1.8317,1.8317,1.8317,1.8198,1.8251,1.8236,1.829,1.8286,1.832,1.8328,1.8336,1.8338,1.8377,1.8397,1.8388,1.8384,1.8404,1.8425,1.842,1.843,1.846,1.845,1.8329,1.8311,1.8294,1.8281,1.8463,1.8463,1.8577,1.8578,1.8579]},{"header":{"parameterUnit":"m.s-1","parameterCategory":1,"la1":30.2991,"la2":30.254,"lo1":-89.0895,"lo2":-89.0444,"dy":0.0017,"dx":0.0017,"nx":28,"ny":28,"refTime":"2023-07-30T21:00:00:Z","depth":0,"parameterNumber":3,"parameterNumberName":"V-component_of_WINDS"},"data":[0,0,0,0,0,0,0,0,0,0,0,0,0,0,0,0,0,0,0,0,0,0,0,0,0,0,0,0,0,0,0,0,0,0,0,0,0,0,0,0,0,0,0,0,0,0,0,0,0,0,0,0,0,0,0,0,0,0,-1.3106,-1.3106,0,-1.3117,-1.3118,-1.3118,-1.3098,-1.3098,-1.3097,-1.3097,-1.3108,-1.3109,-1.311,0,0,0,0,0,0,0,0,0,0,0,0,0,-1.3069,-1.3069,-1.3106,-1.3106,-1.3107,-1.3117,-1.3118,-1.3118,-1.3099,-1.3098,-1.3097,-1.3096,-1.3108,-1.3109,-1.311,0,0,0,0,0,0,0,0,0,0,0,0,0,-1.3083,-1.307,-1.3106,-1.3098,-1.3098,-1.3117,-1.3118,-1.3118,-1.3099,-1.3098,-1.3097,-1.3096,-1.3108,-1.3109,-1.311,-1.3139,0,0,-1.3115,-1.3115,0,0,0,0,0,0,0,0,-1.3082,-1.3084,-1.3099,-1.3099,-1.3098,-1.3106,-1.3109,-1.3125,-1.3099,-1.3098,-1.3097,-1.3095,-1.3108,-1.311,-1.3114,-1.3139,-1.314,-1.3115,-1.3116,-1.3116,-1.3117,0,0,0,0,0,0,0,-1.3081,-1.3084,-1.3111,-1.31,-1.3099,-1.3094,-1.3095,-1.3112,-1.3109,-1.3098,-1.3097,-1.3099,-1.3108,-1.3112,-1.3114,-1.314,-1.3115,-1.3116,-1.3117,-1.3117,-1.3189,-1.319,0,0,0,0,0,0,-1.3081,-1.3083,-1.311,-1.3111,-1.3088,-1.3096,-1.3097,-1.3104,-1.3108,-1.3108,-1.3099,-1.3098,-1.3111,-1.3112,-1.3114,-1.3148,-1.3116,-1.3117,-1.3118,-1.3188,-1.3189,-1.319,0,0,0,0,0,0,-1.308,-1.3084,-1.311,-1.3097,-1.31,-1.3097,-1.3106,-1.3105,-1.311,-1.3109,-1.3109,-1.3105,-1.311,-1.3112,-1.3133,-1.3148,-1.3118,-1.3119,-1.3187,-1.3188,-1.319,-1.3214,0,0,0,0,0,0,-1.3079,-1.3084,-1.3094,-1.3097,-1.31,-1.3128,-1.3107,-1.3106,-1.3112,-1.311,-1.3114,-1.3114,-1.3109,-1.3131,-1.3134,-1.3149,-1.312,-1.3185,-1.3187,-1.3189,-1.3212,-1.3217,-1.322,0,0,0,0,0,-1.3078,-1.3101,-1.3095,-1.3098,-1.3114,-1.3129,-1.3131,-1.3125,-1.3113,-1.3124,-1.3124,-1.3114,-1.3145,-1.3133,-1.3137,-1.3152,-1.3184,-1.3187,-1.3189,-1.321,-1.3216,-1.322,0,0,0,0,0,0,-1.31,-1.3101,-1.3094,-1.3119,-1.3124,-1.3126,-1.3139,-1.3131,-1.314,-1.3137,-1.313,-1.3131,-1.3153,-1.3155,-1.3141,-1.318,-1.3163,-1.3166,-1.3178,-1.3183,-1.3187,-1.3186,-1.3122,0,0,0,0,0,-1.3107,-1.312,-1.312,-1.3141,-1.3144,-1.3141,-1.3148,-1.3143,-1.3148,-1.315,-1.3151,-1.3157,-1.3168,-1.3176,-1.3186,-1.3212,-1.3213,-1.3225,-1.3229,-1.3232,-1.3235,-1.325,-1.3255,-1.3198,-1.3198,-1.3198,0,0,-1.3123,-1.3125,-1.3134,-1.3146,-1.3149,-1.3162,-1.3143,-1.3158,-1.3167,-1.3152,-1.3172,-1.3173,-1.3178,-1.3202,-1.3212,-1.3204,-1.3251,-1.3235,-1.3238,-1.3239,-1.3253,-1.3258,-1.3263,-1.32,-1.3199,-1.3199,0,0,-1.3159,-1.3161,-1.318,-1.3183,-1.3189,-1.3187,-1.3191,-1.3194,-1.3194,-1.3214,-1.3203,-1.3214,-1.3233,-1.3238,-1.3243,-1.328,-1.3271,-1.3284,-1.3305,-1.3319,-1.3324,-1.3328,-1.3341,-1.3346,-1.3287,-1.3287,-1.3287,0,-1.3178,-1.3197,-1.319,-1.3205,-1.3211,-1.3198,-1.3216,-1.322,-1.3229,-1.3233,-1.3224,-1.3248,-1.3251,-1.3275,-1.3285,-1.3289,-1.3294,-1.3283,-1.3324,-1.3328,-1.3331,-1.3344,-1.3349,-1.3288,-1.3288,-1.3288,-1.3288,0,-1.322,-1.3233,-1.3247,-1.3256,-1.3263,-1.328,-1.3276,-1.3284,-1.3279,-1.3278,-1.3298,-1.3301,-1.3311,-1.3317,-1.3311,-1.3341,-1.3335,-1.3325,-1.3308,-1.3338,-1.335,-1.3355,-1.329,-1.329,-1.3289,-1.3289,0,0,-1.3269,-1.3274,-1.3279,-1.3283,-1.3288,-1.3298,-1.3315,-1.3325,-1.3333,-1.3339,-1.3353,-1.3369,-1.336,-1.3365,-1.3361,-1.3373,-1.3403,-1.3361,-1.3361,-1.3369,-1.3435,-1.3443,-1.3449,-1.3397,-1.3398,-1.3398,-1.3435,0,-1.3305,-1.3333,-1.3327,-1.3355,-1.3367,-1.3355,-1.3369,-1.3374,-1.3373,-1.3384,-1.3383,-1.3395,-1.3382,-1.3385,-1.3397,-1.3397,-1.3416,-1.3394,-1.341,-1.341,-1.3409,-1.3455,-1.3464,-1.3498,-1.3439,-1.344,-1.3441,0,-1.335,-1.3358,-1.3386,-1.339,-1.3395,-1.3408,-1.3417,-1.3427,-1.3432,-1.3431,-1.3437,-1.343,-1.3447,-1.3429,-1.3452,-1.3437,-1.3443,-1.3444,-1.3445,-1.3447,-1.3428,-1.3458,-1.3509,-1.3514,-1.3448,-1.3447,-1.3447,0,-1.3383,-1.3401,-1.3421,-1.3424,-1.3429,-1.3438,-1.344,-1.3445,-1.3451,-1.3459,-1.3464,-1.3474,-1.3479,-1.3487,-1.3483,-1.3471,-1.3507,-1.3489,-1.3506,-1.3506,-1.3514,-1.3514,-1.3567,-1.3518,-1.3518,-1.3518,-1.3518,0,-1.3423,-1.3441,-1.3436,-1.3448,-1.3468,-1.3461,-1.3481,-1.3482,-1.3486,-1.3498,-1.3488,-1.35,-1.3494,-1.3505,-1.3502,-1.3521,-1.3524,-1.3523,-1.3522,-1.3525,-1.3525,-1.3529,-1.3526,-1.3519,-1.3519,-1.3519,-1.3518,0,-1.3464,-1.3461,-1.3482,-1.3484,-1.3485,-1.35,-1.3502,-1.3513,-1.3512,-1.3527,-1.3531,-1.3529,-1.3542,-1.3538,-1.3552,-1.355,-1.3575,-1.357,-1.3573,-1.3572,-1.359,-1.3588,-1.3647,-1.3655,-1.3601,-1.3601,-1.3602,0,-1.349,-1.3504,-1.3508,-1.3515,-1.3518,-1.353,-1.3537,-1.3531,-1.3539,-1.3546,-1.3556,-1.3568,-1.3577,-1.3598,-1.3598,-1.3609,-1.3605,-1.3625,-1.3607,-1.3608,-1.3606,-1.3605,-1.3607,-1.3629,-1.3629,-1.363,-1.363,0,-1.3537,-1.3534,-1.3545,-1.3554,-1.3563,-1.357,-1.3577,-1.3583,-1.3578,-1.3587,-1.36,-1.3607,-1.3621,-1.3633,-1.3643,-1.3645,-1.3637,-1.3636,-1.3641,-1.3643,-1.3644,-1.3644,-1.3583,-1.3635,-1.3634,-1.3634,-1.3634,-1.3634,-1.3571,-1.3583,-1.3587,-1.3599,-1.3603,-1.361,-1.3621,-1.3621,-1.3631,-1.3642,-1.3638,-1.3653,-1.3658,-1.367,-1.3674,-1.3686,-1.3678,-1.3685,-1.3687,-1.3688,-1.3691,-1.3642,-1.3687,-1.3687,-1.3687,-1.3687,-1.3687,0,-1.3617,-1.362,-1.363,-1.364,-1.3649,-1.364,-1.3647,-1.3656,-1.3669,-1.3674,-1.3683,-1.3698,-1.371,-1.3711,-1.3722,-1.3731,-1.3728,-1.3734,-1.3734,-1.3735,-1.3697,-1.3692,-1.3737,-1.3737,-1.3737,-1.3737,-1.3737,-1.3737,-1.3642,-1.3662,-1.366,-1.3682,-1.3684,-1.3699,-1.3703,-1.3709,-1.3713,-1.3731,-1.374,-1.3741,-1.3744,-1.3755,-1.3766,-1.3766,-1.377,-1.3779,-1.3777,-1.3742,-1.3737,-1.3732,-1.3728,-1.378,-1.378,-1.3814,-1.3814,-1.3815]}]]